Year,Month,Day,Hour,Minute,Value (Times are PST for temperature in C)
2012,07,05,00,00,13.70
2012,07,05,00,01,13.70
2012,07,05,00,02,13.70
2012,07,05,00,03,13.70
2012,07,05,00,04,13.60
2012,07,05,00,05,13.60
2012,07,05,00,06,13.60
2012,07,05,00,07,13.60
2012,07,05,00,08,13.50
2012,07,05,00,09,13.50
2012,07,05,00,10,13.50
2012,07,05,00,11,13.50
2012,07,05,00,12,13.50
2012,07,05,00,13,13.50
2012,07,05,00,14,13.50
2012,07,05,00,15,13.50
2012,07,05,00,16,13.50
2012,07,05,00,17,13.50
2012,07,05,00,18,13.50
2012,07,05,00,19,13.40
2012,07,05,00,20,13.40
2012,07,05,00,21,13.40
2012,07,05,00,22,13.40
2012,07,05,00,23,13.40
2012,07,05,00,24,13.30
2012,07,05,00,25,13.30
2012,07,05,00,26,13.30
2012,07,05,00,27,13.30
2012,07,05,00,28,13.30
2012,07,05,00,29,13.20
2012,07,05,00,30,13.20
2012,07,05,00,31,13.20
2012,07,05,00,32,13.20
2012,07,05,00,33,13.20
2012,07,05,00,34,13.20
2012,07,05,00,35,13.20
2012,07,05,00,36,13.10
2012,07,05,00,37,13.10
2012,07,05,00,38,13.10
2012,07,05,00,39,13.10
2012,07,05,00,40,13.10
2012,07,05,00,41,13.10
2012,07,05,00,42,13.10
2012,07,05,00,43,13.00
2012,07,05,00,44,13.00
2012,07,05,00,45,13.00
2012,07,05,00,46,13.00
2012,07,05,00,47,12.90
2012,07,05,00,48,12.90
2012,07,05,00,49,12.90
2012,07,05,00,50,12.80
2012,07,05,00,51,12.80
2012,07,05,00,52,12.80
2012,07,05,00,53,12.80
2012,07,05,00,54,12.80
2012,07,05,00,55,12.70
2012,07,05,00,56,12.60
2012,07,05,00,57,12.60
2012,07,05,00,58,12.50
2012,07,05,00,59,12.50
2012,07,05,01,00,12.40
2012,07,05,01,01,12.40
2012,07,05,01,02,12.30
2012,07,05,01,03,12.30
2012,07,05,01,04,12.30
2012,07,05,01,05,12.30
2012,07,05,01,06,12.30
2012,07,05,01,07,12.30
2012,07,05,01,08,12.30
2012,07,05,01,09,12.30
2012,07,05,01,10,12.30
2012,07,05,01,11,12.30
2012,07,05,01,12,12.30
2012,07,05,01,13,12.30
2012,07,05,01,14,12.20
2012,07,05,01,15,12.20
2012,07,05,01,16,12.20
2012,07,05,01,17,12.20
2012,07,05,01,18,12.10
2012,07,05,01,19,12.10
2012,07,05,01,20,12.10
2012,07,05,01,21,12.10
2012,07,05,01,22,12.10
2012,07,05,01,23,12.10
2012,07,05,01,24,12.10
2012,07,05,01,25,12.10
2012,07,05,01,26,12.10
2012,07,05,01,27,12.10
2012,07,05,01,28,12.10
2012,07,05,01,29,12.10
2012,07,05,01,30,12.20
2012,07,05,01,31,12.20
2012,07,05,01,32,12.20
2012,07,05,01,33,12.20
2012,07,05,01,34,12.20
2012,07,05,01,35,12.20
2012,07,05,01,36,12.20
2012,07,05,01,37,12.20
2012,07,05,01,38,12.20
2012,07,05,01,39,12.20
2012,07,05,01,40,12.10
2012,07,05,01,41,12.10
2012,07,05,01,42,12.10
2012,07,05,01,43,12.10
2012,07,05,01,44,12.10
2012,07,05,01,45,12.10
2012,07,05,01,46,12.00
2012,07,05,01,47,12.00
2012,07,05,01,48,12.00
2012,07,05,01,49,12.00
2012,07,05,01,50,12.00
2012,07,05,01,51,12.00
2012,07,05,01,52,11.90
2012,07,05,01,53,11.90
2012,07,05,01,54,11.90
2012,07,05,01,55,11.90
2012,07,05,01,56,11.90
2012,07,05,01,57,11.90
2012,07,05,01,58,11.90
2012,07,05,01,59,11.90
2012,07,05,02,00,11.90
2012,07,05,02,01,11.90
2012,07,05,02,02,11.90
2012,07,05,02,03,11.90
2012,07,05,02,04,11.90
2012,07,05,02,05,11.90
2012,07,05,02,06,11.90
2012,07,05,02,07,11.90
2012,07,05,02,08,11.80
2012,07,05,02,09,11.80
2012,07,05,02,10,11.80
2012,07,05,02,11,11.80
2012,07,05,02,12,11.80
2012,07,05,02,13,11.80
2012,07,05,02,14,11.80
2012,07,05,02,15,11.80
2012,07,05,02,16,11.80
2012,07,05,02,17,11.80
2012,07,05,02,18,11.80
2012,07,05,02,19,11.80
2012,07,05,02,20,11.80
2012,07,05,02,21,11.80
2012,07,05,02,22,11.80
2012,07,05,02,23,11.80
2012,07,05,02,24,11.80
2012,07,05,02,25,11.80
2012,07,05,02,26,11.80
2012,07,05,02,27,11.80
2012,07,05,02,28,11.80
2012,07,05,02,29,11.80
2012,07,05,02,30,11.70
2012,07,05,02,31,11.70
2012,07,05,02,32,11.70
2012,07,05,02,33,11.60
2012,07,05,02,34,11.60
2012,07,05,02,35,11.60
2012,07,05,02,36,11.60
2012,07,05,02,37,11.60
2012,07,05,02,38,11.50
2012,07,05,02,39,11.40
2012,07,05,02,40,11.40
2012,07,05,02,41,11.40
2012,07,05,02,42,11.40
2012,07,05,02,43,11.40
2012,07,05,02,44,11.40
2012,07,05,02,45,11.40
2012,07,05,02,46,11.40
2012,07,05,02,47,11.30
2012,07,05,02,48,11.30
2012,07,05,02,49,11.30
2012,07,05,02,50,11.30
2012,07,05,02,51,11.30
2012,07,05,02,52,11.30
2012,07,05,02,53,11.20
2012,07,05,02,54,11.20
2012,07,05,02,55,11.20
2012,07,05,02,56,11.20
2012,07,05,02,57,11.20
2012,07,05,02,58,11.20
2012,07,05,02,59,11.20
2012,07,05,03,00,11.20
2012,07,05,03,01,11.20
2012,07,05,03,02,11.10
2012,07,05,03,03,11.10
2012,07,05,03,04,11.10
2012,07,05,03,05,11.10
2012,07,05,03,06,11.10
2012,07,05,03,07,11.10
2012,07,05,03,08,11.10
2012,07,05,03,09,11.10
2012,07,05,03,10,11.10
2012,07,05,03,11,11.10
2012,07,05,03,12,11.10
2012,07,05,03,13,11.10
2012,07,05,03,14,11.10
2012,07,05,03,15,11.10
2012,07,05,03,16,11.10
2012,07,05,03,17,11.20
2012,07,05,03,18,11.20
2012,07,05,03,19,11.20
2012,07,05,03,20,11.20
2012,07,05,03,21,11.20
2012,07,05,03,22,11.20
2012,07,05,03,23,11.20
2012,07,05,03,24,11.20
2012,07,05,03,25,11.20
2012,07,05,03,26,11.20
2012,07,05,03,27,11.20
2012,07,05,03,28,11.20
2012,07,05,03,29,11.20
2012,07,05,03,30,11.10
2012,07,05,03,31,11.10
2012,07,05,03,32,11.10
2012,07,05,03,33,11.10
2012,07,05,03,34,11.10
2012,07,05,03,35,11.10
2012,07,05,03,36,11.10
2012,07,05,03,37,11.10
2012,07,05,03,38,11.10
2012,07,05,03,39,11.10
2012,07,05,03,40,11.10
2012,07,05,03,41,11.10
2012,07,05,03,42,11.10
2012,07,05,03,43,11.10
2012,07,05,03,44,11.10
2012,07,05,03,45,11.00
2012,07,05,03,46,10.90
2012,07,05,03,47,10.90
2012,07,05,03,48,10.90
2012,07,05,03,49,10.90
2012,07,05,03,50,10.90
2012,07,05,03,51,10.90
2012,07,05,03,52,10.90
2012,07,05,03,53,10.90
2012,07,05,03,54,10.90
2012,07,05,03,55,10.90
2012,07,05,03,56,10.90
2012,07,05,03,57,10.90
2012,07,05,03,58,10.90
2012,07,05,03,59,10.90
2012,07,05,04,00,10.90
2012,07,05,04,01,10.90
2012,07,05,04,02,10.90
2012,07,05,04,03,10.90
2012,07,05,04,04,10.90
2012,07,05,04,05,10.90
2012,07,05,04,06,10.90
2012,07,05,04,07,10.90
2012,07,05,04,08,10.90
2012,07,05,04,09,10.90
2012,07,05,04,10,10.90
2012,07,05,04,11,10.90
2012,07,05,04,12,10.90
2012,07,05,04,13,10.90
2012,07,05,04,14,10.90
2012,07,05,04,15,10.90
2012,07,05,04,16,10.90
2012,07,05,04,17,10.90
2012,07,05,04,18,10.90
2012,07,05,04,19,10.90
2012,07,05,04,20,10.90
2012,07,05,04,21,10.90
2012,07,05,04,22,10.90
2012,07,05,04,23,10.90
2012,07,05,04,24,10.90
2012,07,05,04,25,10.90
2012,07,05,04,26,10.90
2012,07,05,04,27,10.90
2012,07,05,04,28,10.90
2012,07,05,04,29,10.90
2012,07,05,04,30,10.90
2012,07,05,04,31,10.90
2012,07,05,04,32,10.90
2012,07,05,04,33,10.90
2012,07,05,04,34,10.90
2012,07,05,04,35,10.90
2012,07,05,04,36,10.90
2012,07,05,04,37,10.90
2012,07,05,04,38,10.90
2012,07,05,04,39,10.90
2012,07,05,04,40,11.00
2012,07,05,04,41,11.10
2012,07,05,04,42,11.10
2012,07,05,04,43,11.10
2012,07,05,04,44,11.10
2012,07,05,04,45,11.00
2012,07,05,04,46,10.90
2012,07,05,04,47,10.90
2012,07,05,04,48,10.90
2012,07,05,04,49,10.90
2012,07,05,04,50,10.90
2012,07,05,04,51,10.90
2012,07,05,04,52,10.90
2012,07,05,04,53,10.90
2012,07,05,04,54,10.90
2012,07,05,04,55,10.90
2012,07,05,04,56,10.90
2012,07,05,04,57,10.90
2012,07,05,04,58,10.90
2012,07,05,04,59,10.90
2012,07,05,05,00,10.80
2012,07,05,05,01,10.80
2012,07,05,05,02,10.90
2012,07,05,05,03,10.90
2012,07,05,05,04,10.90
2012,07,05,05,05,10.90
2012,07,05,05,06,10.90
2012,07,05,05,07,10.90
2012,07,05,05,08,10.90
2012,07,05,05,09,10.90
2012,07,05,05,10,10.90
2012,07,05,05,11,10.90
2012,07,05,05,12,10.90
2012,07,05,05,13,10.90
2012,07,05,05,14,10.90
2012,07,05,05,15,10.90
2012,07,05,05,16,10.90
2012,07,05,05,17,10.90
2012,07,05,05,18,10.90
2012,07,05,05,19,10.90
2012,07,05,05,20,10.90
2012,07,05,05,21,10.90
2012,07,05,05,22,10.90
2012,07,05,05,23,10.90
2012,07,05,05,24,10.90
2012,07,05,05,25,10.90
2012,07,05,05,26,10.90
2012,07,05,05,27,10.90
2012,07,05,05,28,10.90
2012,07,05,05,29,10.90
2012,07,05,05,30,10.90
2012,07,05,05,31,10.90
2012,07,05,05,32,10.90
2012,07,05,05,33,10.90
2012,07,05,05,34,10.90
2012,07,05,05,35,11.00
2012,07,05,05,36,11.10
2012,07,05,05,37,11.10
2012,07,05,05,38,11.10
2012,07,05,05,39,11.10
2012,07,05,05,40,11.10
2012,07,05,05,41,11.10
2012,07,05,05,42,11.20
2012,07,05,05,43,11.20
2012,07,05,05,44,11.20
2012,07,05,05,45,11.30
2012,07,05,05,46,11.30
2012,07,05,05,47,11.30
2012,07,05,05,48,11.40
2012,07,05,05,49,11.40
2012,07,05,05,50,11.40
2012,07,05,05,51,11.40
2012,07,05,05,52,11.50
2012,07,05,05,53,11.60
2012,07,05,05,54,11.60
2012,07,05,05,55,11.60
2012,07,05,05,56,11.60
2012,07,05,05,57,11.60
2012,07,05,05,58,11.70
2012,07,05,05,59,11.70
2012,07,05,06,00,11.80
2012,07,05,06,01,11.80
2012,07,05,06,02,11.80
2012,07,05,06,03,11.80
2012,07,05,06,04,11.90
2012,07,05,06,05,11.90
2012,07,05,06,06,11.90
2012,07,05,06,07,11.90
2012,07,05,06,08,11.90
2012,07,05,06,09,12.00
2012,07,05,06,10,12.00
2012,07,05,06,11,12.00
2012,07,05,06,12,12.00
2012,07,05,06,13,12.00
2012,07,05,06,14,12.00
2012,07,05,06,15,12.10
2012,07,05,06,16,12.10
2012,07,05,06,17,12.20
2012,07,05,06,18,12.30
2012,07,05,06,19,12.30
2012,07,05,06,20,12.30
2012,07,05,06,21,12.30
2012,07,05,06,22,12.40
2012,07,05,06,23,12.50
2012,07,05,06,24,12.50
2012,07,05,06,25,12.60
2012,07,05,06,26,12.70
2012,07,05,06,27,12.80
2012,07,05,06,28,12.80
2012,07,05,06,29,12.90
2012,07,05,06,30,13.00
2012,07,05,06,31,13.00
2012,07,05,06,32,13.10
2012,07,05,06,33,13.20
2012,07,05,06,34,13.20
2012,07,05,06,35,13.30
2012,07,05,06,36,13.30
2012,07,05,06,37,13.30
2012,07,05,06,38,13.40
2012,07,05,06,39,13.40
2012,07,05,06,40,13.40
2012,07,05,06,41,13.50
2012,07,05,06,42,13.50
2012,07,05,06,43,13.50
2012,07,05,06,44,13.60
2012,07,05,06,45,13.60
2012,07,05,06,46,13.70
2012,07,05,06,47,13.70
2012,07,05,06,48,13.80
2012,07,05,06,49,13.90
2012,07,05,06,50,13.90
2012,07,05,06,51,14.00
2012,07,05,06,52,14.10
2012,07,05,06,53,14.10
2012,07,05,06,54,14.20
2012,07,05,06,55,14.20
2012,07,05,06,56,14.20
2012,07,05,06,57,14.20
2012,07,05,06,58,14.20
2012,07,05,06,59,14.20
2012,07,05,07,00,14.30
2012,07,05,07,01,14.30
2012,07,05,07,02,14.40
2012,07,05,07,03,14.40
2012,07,05,07,04,14.40
2012,07,05,07,05,14.40
2012,07,05,07,06,14.50
2012,07,05,07,07,14.50
2012,07,05,07,08,14.50
2012,07,05,07,09,14.50
2012,07,05,07,10,14.50
2012,07,05,07,11,14.50
2012,07,05,07,12,14.50
2012,07,05,07,13,14.50
2012,07,05,07,14,14.50
2012,07,05,07,15,14.60
2012,07,05,07,16,14.60
2012,07,05,07,17,14.60
2012,07,05,07,18,14.70
2012,07,05,07,19,14.70
2012,07,05,07,20,14.80
2012,07,05,07,21,14.80
2012,07,05,07,22,14.80
2012,07,05,07,23,14.80
2012,07,05,07,24,14.90
2012,07,05,07,25,14.90
2012,07,05,07,26,15.00
2012,07,05,07,27,15.00
2012,07,05,07,28,15.10
2012,07,05,07,29,15.10
2012,07,05,07,30,15.10
2012,07,05,07,31,15.10
2012,07,05,07,32,15.10
2012,07,05,07,33,15.10
2012,07,05,07,34,15.10
2012,07,05,07,35,15.10
2012,07,05,07,36,15.10
2012,07,05,07,37,15.00
2012,07,05,07,38,15.00
2012,07,05,07,39,15.00
2012,07,05,07,40,15.00
2012,07,05,07,41,15.00
2012,07,05,07,42,15.00
2012,07,05,07,43,15.10
2012,07,05,07,44,15.10
2012,07,05,07,45,15.10
2012,07,05,07,46,15.10
2012,07,05,07,47,15.20
2012,07,05,07,48,15.20
2012,07,05,07,49,15.30
2012,07,05,07,50,15.30
2012,07,05,07,51,15.40
2012,07,05,07,52,15.40
2012,07,05,07,53,15.50
2012,07,05,07,54,15.50
2012,07,05,07,55,15.50
2012,07,05,07,56,15.50
2012,07,05,07,57,15.50
2012,07,05,07,58,15.50
2012,07,05,07,59,15.50
2012,07,05,08,00,15.50
2012,07,05,08,01,15.50
2012,07,05,08,02,15.40
2012,07,05,08,03,15.30
2012,07,05,08,04,15.30
2012,07,05,08,05,15.40
2012,07,05,08,06,15.40
2012,07,05,08,07,15.50
2012,07,05,08,08,15.50
2012,07,05,08,09,15.40
2012,07,05,08,10,15.40
2012,07,05,08,11,15.30
2012,07,05,08,12,15.20
2012,07,05,08,13,15.20
2012,07,05,08,14,15.10
2012,07,05,08,15,15.10
2012,07,05,08,16,15.10
2012,07,05,08,17,15.10
2012,07,05,08,18,15.20
2012,07,05,08,19,15.30
2012,07,05,08,20,15.30
2012,07,05,08,21,15.40
2012,07,05,08,22,15.50
2012,07,05,08,23,15.50
2012,07,05,08,24,15.50
2012,07,05,08,25,15.50
2012,07,05,08,26,15.50
2012,07,05,08,27,15.50
2012,07,05,08,28,15.50
2012,07,05,08,29,15.40
2012,07,05,08,30,15.40
2012,07,05,08,31,15.30
2012,07,05,08,32,15.30
2012,07,05,08,33,15.30
2012,07,05,08,34,15.30
2012,07,05,08,35,15.30
2012,07,05,08,36,15.40
2012,07,05,08,37,15.50
2012,07,05,08,38,15.50
2012,07,05,08,39,15.40
2012,07,05,08,40,15.30
2012,07,05,08,41,15.30
2012,07,05,08,42,15.40
2012,07,05,08,43,15.30
2012,07,05,08,44,15.30
2012,07,05,08,45,15.40
2012,07,05,08,46,15.40
2012,07,05,08,47,15.30
2012,07,05,08,48,15.30
2012,07,05,08,49,15.30
2012,07,05,08,50,15.30
2012,07,05,08,51,15.30
2012,07,05,08,52,15.20
2012,07,05,08,53,15.20
2012,07,05,08,54,15.20
2012,07,05,08,55,15.10
2012,07,05,08,56,15.10
2012,07,05,08,57,15.10
2012,07,05,08,58,15.20
2012,07,05,08,59,15.20
2012,07,05,09,00,15.10
2012,07,05,09,01,15.00
2012,07,05,09,02,15.00
2012,07,05,09,03,15.00
2012,07,05,09,04,15.10
2012,07,05,09,05,15.20
2012,07,05,09,06,15.30
2012,07,05,09,07,15.40
2012,07,05,09,08,15.50
2012,07,05,09,09,15.70
2012,07,05,09,10,15.80
2012,07,05,09,11,15.80
2012,07,05,09,12,15.90
2012,07,05,09,13,15.80
2012,07,05,09,14,15.80
2012,07,05,09,15,15.70
2012,07,05,09,16,15.60
2012,07,05,09,17,15.50
2012,07,05,09,18,15.40
2012,07,05,09,19,15.20
2012,07,05,09,20,15.20
2012,07,05,09,21,15.00
2012,07,05,09,22,14.90
2012,07,05,09,23,14.90
2012,07,05,09,24,15.00
2012,07,05,09,25,15.00
2012,07,05,09,26,14.90
2012,07,05,09,27,14.80
2012,07,05,09,28,14.90
2012,07,05,09,29,14.90
2012,07,05,09,30,15.00
2012,07,05,09,31,15.10
2012,07,05,09,32,15.10
2012,07,05,09,33,15.10
2012,07,05,09,34,15.10
2012,07,05,09,35,15.10
2012,07,05,09,36,15.00
2012,07,05,09,37,15.00
2012,07,05,09,38,15.00
2012,07,05,09,39,15.00
2012,07,05,09,40,15.00
2012,07,05,09,41,14.90
2012,07,05,09,42,14.90
2012,07,05,09,43,14.80
2012,07,05,09,44,14.90
2012,07,05,09,45,14.90
2012,07,05,09,46,14.80
2012,07,05,09,47,14.90
2012,07,05,09,48,15.00
2012,07,05,09,49,15.00
2012,07,05,09,50,15.00
2012,07,05,09,51,14.90
2012,07,05,09,52,14.90
2012,07,05,09,53,14.80
2012,07,05,09,54,14.90
2012,07,05,09,55,14.90
2012,07,05,09,56,15.00
2012,07,05,09,57,15.00
2012,07,05,09,58,14.90
2012,07,05,09,59,15.00
2012,07,05,10,00,15.00
2012,07,05,10,01,15.10
2012,07,05,10,02,15.20
2012,07,05,10,03,15.30
2012,07,05,10,04,15.30
2012,07,05,10,05,15.40
2012,07,05,10,06,15.50
2012,07,05,10,07,15.40
2012,07,05,10,08,15.30
2012,07,05,10,09,15.30
2012,07,05,10,10,15.20
2012,07,05,10,11,15.30
2012,07,05,10,12,15.30
2012,07,05,10,13,15.30
2012,07,05,10,14,15.30
2012,07,05,10,15,15.30
2012,07,05,10,16,15.30
2012,07,05,10,17,15.40
2012,07,05,10,18,15.40
2012,07,05,10,19,15.40
2012,07,05,10,20,15.40
2012,07,05,10,21,15.30
2012,07,05,10,22,15.30
2012,07,05,10,23,15.30
2012,07,05,10,24,15.30
2012,07,05,10,25,15.40
2012,07,05,10,26,15.50
2012,07,05,10,27,15.50
2012,07,05,10,28,15.60
2012,07,05,10,29,15.60
2012,07,05,10,30,15.60
2012,07,05,10,31,15.70
2012,07,05,10,32,15.80
2012,07,05,10,33,15.80
2012,07,05,10,34,15.90
2012,07,05,10,35,16.00
2012,07,05,10,36,16.10
2012,07,05,10,37,16.10
2012,07,05,10,38,16.10
2012,07,05,10,39,16.10
2012,07,05,10,40,15.90
2012,07,05,10,41,15.80
2012,07,05,10,42,15.80
2012,07,05,10,43,15.80
2012,07,05,10,44,15.80
2012,07,05,10,45,15.80
2012,07,05,10,46,15.70
2012,07,05,10,47,15.70
2012,07,05,10,48,15.70
2012,07,05,10,49,15.70
2012,07,05,10,50,15.70
2012,07,05,10,51,15.70
2012,07,05,10,52,15.80
2012,07,05,10,53,15.90
2012,07,05,10,54,16.10
2012,07,05,10,55,16.10
2012,07,05,10,56,16.00
2012,07,05,10,57,15.90
2012,07,05,10,58,15.80
2012,07,05,10,59,15.80
2012,07,05,11,00,15.70
2012,07,05,11,01,15.70
2012,07,05,11,02,15.80
2012,07,05,11,03,16.00
2012,07,05,11,04,16.00
2012,07,05,11,05,16.00
2012,07,05,11,06,16.10
2012,07,05,11,07,16.10
2012,07,05,11,08,16.10
2012,07,05,11,09,16.10
2012,07,05,11,10,16.20
2012,07,05,11,11,16.20
2012,07,05,11,12,16.10
2012,07,05,11,13,16.10
2012,07,05,11,14,16.10
2012,07,05,11,15,16.10
2012,07,05,11,16,16.10
2012,07,05,11,17,16.10
2012,07,05,11,18,16.10
2012,07,05,11,19,16.10
2012,07,05,11,20,16.20
2012,07,05,11,21,16.30
2012,07,05,11,22,16.40
2012,07,05,11,23,16.40
2012,07,05,11,24,16.50
2012,07,05,11,25,16.60
2012,07,05,11,26,16.60
2012,07,05,11,27,16.40
2012,07,05,11,28,16.40
2012,07,05,11,29,16.40
2012,07,05,11,30,16.40
2012,07,05,11,31,16.40
2012,07,05,11,32,16.40
2012,07,05,11,33,16.40
2012,07,05,11,34,16.40
2012,07,05,11,35,16.40
2012,07,05,11,36,16.30
2012,07,05,11,37,16.30
2012,07,05,11,38,16.40
2012,07,05,11,39,16.50
2012,07,05,11,40,16.60
2012,07,05,11,41,16.70
2012,07,05,11,42,16.80
2012,07,05,11,43,16.90
2012,07,05,11,44,16.80
2012,07,05,11,45,16.70
2012,07,05,11,46,16.70
2012,07,05,11,47,16.70
2012,07,05,11,48,16.70
2012,07,05,11,49,16.80
2012,07,05,11,50,16.80
2012,07,05,11,51,16.80
2012,07,05,11,52,16.70
2012,07,05,11,53,16.70
2012,07,05,11,54,16.70
2012,07,05,11,55,16.70
2012,07,05,11,56,16.70
2012,07,05,11,57,16.70
2012,07,05,11,58,16.70
2012,07,05,11,59,16.70
2012,07,05,12,00,16.70
2012,07,05,12,01,16.70
2012,07,05,12,02,16.70
2012,07,05,12,03,16.70
2012,07,05,12,04,16.70
2012,07,05,12,05,16.70
2012,07,05,12,06,16.90
2012,07,05,12,07,16.90
2012,07,05,12,08,17.00
2012,07,05,12,09,17.00
2012,07,05,12,10,17.00
2012,07,05,12,11,16.90
2012,07,05,12,12,16.90
2012,07,05,12,13,16.90
2012,07,05,12,14,16.90
2012,07,05,12,15,16.90
2012,07,05,12,16,16.90
2012,07,05,12,17,17.00
2012,07,05,12,18,16.90
2012,07,05,12,19,16.90
2012,07,05,12,20,16.90
2012,07,05,12,21,16.90
2012,07,05,12,22,16.90
2012,07,05,12,23,16.90
2012,07,05,12,24,16.90
2012,07,05,12,25,17.00
2012,07,05,12,26,17.00
2012,07,05,12,27,17.00
2012,07,05,12,28,16.90
2012,07,05,12,29,16.90
2012,07,05,12,30,17.00
2012,07,05,12,31,17.00
2012,07,05,12,32,17.10
2012,07,05,12,33,17.20
2012,07,05,12,34,17.30
2012,07,05,12,35,17.30
2012,07,05,12,36,17.40
2012,07,05,12,37,17.50
2012,07,05,12,38,17.60
2012,07,05,12,39,17.70
2012,07,05,12,40,17.80
2012,07,05,12,41,17.90
2012,07,05,12,42,17.90
2012,07,05,12,43,18.00
2012,07,05,12,44,18.10
2012,07,05,12,45,18.20
2012,07,05,12,46,18.20
2012,07,05,12,47,18.20
2012,07,05,12,48,18.00
2012,07,05,12,49,17.90
2012,07,05,12,50,17.80
2012,07,05,12,51,17.80
2012,07,05,12,52,17.70
2012,07,05,12,53,17.70
2012,07,05,12,54,17.70
2012,07,05,12,55,17.80
2012,07,05,12,56,18.00
2012,07,05,12,57,18.20
2012,07,05,12,58,18.40
2012,07,05,12,59,18.40
2012,07,05,13,00,18.40
2012,07,05,13,01,18.40
2012,07,05,13,02,18.30
2012,07,05,13,03,18.20
2012,07,05,13,04,18.10
2012,07,05,13,05,18.10
2012,07,05,13,06,18.10
2012,07,05,13,07,18.10
2012,07,05,13,08,18.00
2012,07,05,13,09,17.90
2012,07,05,13,10,17.90
2012,07,05,13,11,17.80
2012,07,05,13,12,17.80
2012,07,05,13,13,17.80
2012,07,05,13,14,17.70
2012,07,05,13,15,17.70
2012,07,05,13,16,17.80
2012,07,05,13,17,17.90
2012,07,05,13,18,18.00
2012,07,05,13,19,18.10
2012,07,05,13,20,18.20
2012,07,05,13,21,18.20
2012,07,05,13,22,18.30
2012,07,05,13,23,18.40
2012,07,05,13,24,18.50
2012,07,05,13,25,18.50
2012,07,05,13,26,18.40
2012,07,05,13,27,18.40
2012,07,05,13,28,18.40
2012,07,05,13,29,18.40
2012,07,05,13,30,18.40
2012,07,05,13,31,18.40
2012,07,05,13,32,18.50
2012,07,05,13,33,18.60
2012,07,05,13,34,18.60
2012,07,05,13,35,18.50
2012,07,05,13,36,18.40
2012,07,05,13,37,18.40
2012,07,05,13,38,18.40
2012,07,05,13,39,18.30
2012,07,05,13,40,18.30
2012,07,05,13,41,18.30
2012,07,05,13,42,18.30
2012,07,05,13,43,18.30
2012,07,05,13,44,18.40
2012,07,05,13,45,18.50
2012,07,05,13,46,18.70
2012,07,05,13,47,18.80
2012,07,05,13,48,18.80
2012,07,05,13,49,18.80
2012,07,05,13,50,18.80
2012,07,05,13,51,18.80
2012,07,05,13,52,18.80
2012,07,05,13,53,18.80
2012,07,05,13,54,18.80
2012,07,05,13,55,18.80
2012,07,05,13,56,18.90
2012,07,05,13,57,18.80
2012,07,05,13,58,18.80
2012,07,05,13,59,18.70
2012,07,05,14,00,18.80
2012,07,05,14,01,18.80
2012,07,05,14,02,18.90
2012,07,05,14,03,19.00
2012,07,05,14,04,19.10
2012,07,05,14,05,19.10
2012,07,05,14,06,19.10
2012,07,05,14,07,19.00
2012,07,05,14,08,18.90
2012,07,05,14,09,18.80
2012,07,05,14,10,18.60
2012,07,05,14,11,18.60
2012,07,05,14,12,18.50
2012,07,05,14,13,18.60
2012,07,05,14,14,18.70
2012,07,05,14,15,18.60
2012,07,05,14,16,18.50
2012,07,05,14,17,18.50
2012,07,05,14,18,18.40
2012,07,05,14,19,18.30
2012,07,05,14,20,18.20
2012,07,05,14,21,18.20
2012,07,05,14,22,18.20
2012,07,05,14,23,18.30
2012,07,05,14,24,18.40
2012,07,05,14,25,18.40
2012,07,05,14,26,18.30
2012,07,05,14,27,18.20
2012,07,05,14,28,18.20
2012,07,05,14,29,18.20
2012,07,05,14,30,18.20
2012,07,05,14,31,18.30
2012,07,05,14,32,18.50
2012,07,05,14,33,18.50
2012,07,05,14,34,18.60
2012,07,05,14,35,18.70
2012,07,05,14,36,18.90
2012,07,05,14,37,18.90
2012,07,05,14,38,18.90
2012,07,05,14,39,18.90
2012,07,05,14,40,18.90
2012,07,05,14,41,18.90
2012,07,05,14,42,18.90
2012,07,05,14,43,18.80
2012,07,05,14,44,18.80
2012,07,05,14,45,18.80
2012,07,05,14,46,18.80
2012,07,05,14,47,18.70
2012,07,05,14,48,18.70
2012,07,05,14,49,18.60
2012,07,05,14,50,18.60
2012,07,05,14,51,18.60
2012,07,05,14,52,18.60
2012,07,05,14,53,18.60
2012,07,05,14,54,18.60
2012,07,05,14,55,18.70
2012,07,05,14,56,18.80
2012,07,05,14,57,18.80
2012,07,05,14,58,18.90
2012,07,05,14,59,18.90
2012,07,05,15,00,18.90
2012,07,05,15,01,18.90
2012,07,05,15,02,18.80
2012,07,05,15,03,18.90
2012,07,05,15,04,18.90
2012,07,05,15,05,18.90
2012,07,05,15,06,18.80
2012,07,05,15,07,18.80
2012,07,05,15,08,18.70
2012,07,05,15,09,18.60
2012,07,05,15,10,18.60
2012,07,05,15,11,18.60
2012,07,05,15,12,18.50
2012,07,05,15,13,18.50
2012,07,05,15,14,18.50
2012,07,05,15,15,18.50
2012,07,05,15,16,18.50
2012,07,05,15,17,18.50
2012,07,05,15,18,18.60
2012,07,05,15,19,18.60
2012,07,05,15,20,18.60
2012,07,05,15,21,18.60
2012,07,05,15,22,18.60
2012,07,05,15,23,18.70
2012,07,05,15,24,18.80
2012,07,05,15,25,19.00
2012,07,05,15,26,19.10
2012,07,05,15,27,19.20
2012,07,05,15,28,19.30
2012,07,05,15,29,19.40
2012,07,05,15,30,19.40
2012,07,05,15,31,19.40
2012,07,05,15,32,19.40
2012,07,05,15,33,19.50
2012,07,05,15,34,19.40
2012,07,05,15,35,19.40
2012,07,05,15,36,19.50
2012,07,05,15,37,19.50
2012,07,05,15,38,19.60
2012,07,05,15,39,19.60
2012,07,05,15,40,19.60
2012,07,05,15,41,19.70
2012,07,05,15,42,19.70
2012,07,05,15,43,19.80
2012,07,05,15,44,19.90
2012,07,05,15,45,19.90
2012,07,05,15,46,19.90
2012,07,05,15,47,19.90
2012,07,05,15,48,19.90
2012,07,05,15,49,19.90
2012,07,05,15,50,19.90
2012,07,05,15,51,19.90
2012,07,05,15,52,19.90
2012,07,05,15,53,19.90
2012,07,05,15,54,19.90
2012,07,05,15,55,19.90
2012,07,05,15,56,19.90
2012,07,05,15,57,19.90
2012,07,05,15,58,20.00
2012,07,05,15,59,20.10
2012,07,05,16,00,20.20
2012,07,05,16,01,20.40
2012,07,05,16,02,20.50
2012,07,05,16,03,20.60
2012,07,05,16,04,20.70
2012,07,05,16,05,20.80
2012,07,05,16,06,20.90
2012,07,05,16,07,20.90
2012,07,05,16,08,20.90
2012,07,05,16,09,20.80
2012,07,05,16,10,20.80
2012,07,05,16,11,20.60
2012,07,05,16,12,20.50
2012,07,05,16,13,20.30
2012,07,05,16,14,20.20
2012,07,05,16,15,20.20
2012,07,05,16,16,20.20
2012,07,05,16,17,20.30
2012,07,05,16,18,20.30
2012,07,05,16,19,20.30
2012,07,05,16,20,20.40
2012,07,05,16,21,20.40
2012,07,05,16,22,20.30
2012,07,05,16,23,20.30
2012,07,05,16,24,20.40
2012,07,05,16,25,20.30
2012,07,05,16,26,20.10
2012,07,05,16,27,20.00
2012,07,05,16,28,19.90
2012,07,05,16,29,19.90
2012,07,05,16,30,19.90
2012,07,05,16,31,19.90
2012,07,05,16,32,19.90
2012,07,05,16,33,19.90
2012,07,05,16,34,19.90
2012,07,05,16,35,19.90
2012,07,05,16,36,19.90
2012,07,05,16,37,19.90
2012,07,05,16,38,19.90
2012,07,05,16,39,19.90
2012,07,05,16,40,19.90
2012,07,05,16,41,19.90
2012,07,05,16,42,19.90
2012,07,05,16,43,19.80
2012,07,05,16,44,19.80
2012,07,05,16,45,19.80
2012,07,05,16,46,19.80
2012,07,05,16,47,19.80
2012,07,05,16,48,19.90
2012,07,05,16,49,19.90
2012,07,05,16,50,19.90
2012,07,05,16,51,19.90
2012,07,05,16,52,20.00
2012,07,05,16,53,20.10
2012,07,05,16,54,20.10
2012,07,05,16,55,20.10
2012,07,05,16,56,20.20
2012,07,05,16,57,20.20
2012,07,05,16,58,20.20
2012,07,05,16,59,20.20
2012,07,05,17,00,20.30
2012,07,05,17,01,20.30
2012,07,05,17,02,20.20
2012,07,05,17,03,20.20
2012,07,05,17,04,20.20
2012,07,05,17,05,20.20
2012,07,05,17,06,20.20
2012,07,05,17,07,20.20
2012,07,05,17,08,20.20
2012,07,05,17,09,20.20
2012,07,05,17,10,20.20
2012,07,05,17,11,20.20
2012,07,05,17,12,20.20
2012,07,05,17,13,20.20
2012,07,05,17,14,20.20
2012,07,05,17,15,20.20
2012,07,05,17,16,20.20
2012,07,05,17,17,20.30
2012,07,05,17,18,20.40
2012,07,05,17,19,20.50